Regional Weather Roundup
Issued by NWS

Home | Current Version | Previous Version | Text Only | Print | Product List | Glossary Off
Versions: 1 2 3 4 5 6 7 8 9 10 11 12 13 14 15 16 17 18 19 20 21 22 23 24 25 26 27 28 29 30 31 32 33 34 35 36 37 38 39 40 41 42 43 44 45 46 47 48 49 50

000
ASUS43 KMPX 011001
RWRMN
WEATHER ROUNDUP FOR MINNESOTA
NATIONAL WEATHER SERVICE TWIN CITIES/CHANHASSEN MN
500 AM CDT WED JUL 01 2015


NOTE: "FAIR" INDICATES FEW OR NO CLOUDS BELOW 12,000 FEET WITH NO
SIGNIFICANT WEATHER AND/OR OBSTRUCTIONS TO VISIBILITY. N/A MEANS
CURRENT SKY AND/OR WEATHER CONDITIONS ARE NOT AVAILABLE.

MNZ060>063-068>070-011100-
   Twin Cities Metro

CITY           SKY/WX    TMP DP  RH WIND       PRES   REMARKS
TWIN CITIES    MOCLDY    60  49  66 SE8       29.97S
ST PAUL        CLOUDY    58  50  75 SE7       29.98S
CRYSTAL        MOCLDY    63  45  51 E6        29.96R
BLAINE         CLOUDY    61  50  67 E5        29.98R
LAKEVILLE      MOCLDY    54  52  94 E5        29.97S
EDEN PRAIRIE   PTCLDY    60  50  69 E8        29.95F
SOUTH ST PAUL  CLOUDY    59  48  66 SE3       29.97S
LAKE ELMO      FAIR      57  50  77 CALM      29.99S
$$
MNZ001>005-007-008-013>017-022>024-027-028-011100-
   Northwest Minnesota

CITY           SKY/WX    TMP DP  RH WIND       PRES   REMARKS
BEMIDJI        PTCLDY    53  52  96 CALM      29.96S
HALLOCK        CLEAR     55  54  94 E3        29.93S
ROSEAU         PTCLDY    54  48  82 CALM      29.96R
WARROAD        PTCLDY    57  52  82 CALM      29.96S
THIEF RVR FALL PTCLDY    57  52  82 E3        29.95S
CROOKSTON      PTCLDY    57  54  88 E6        29.93S
FOSSTON        PTCLDY    54  46  76 CALM      29.95S
DETROIT LAKES  MOCLDY    63  57  82 SE5       29.95S
MOORHEAD       MOCLDY    63  61  94 S5        29.93S
PARK RAPIDS    MOCLDY    61  56  83 SE5       29.96R
MAHNOMEN       FAIR      60  56  88 SE5       29.93S
$$
MNZ006-009>011-018-025>026-011100-
   North Central Minnesota

CITY           SKY/WX    TMP DP  RH WIND       PRES   REMARKS
BAUDETTE       PTCLDY    51  49  92 CALM      29.96S
FLAG ISLAND    CLEAR     63  57  82 S3        29.95R
INTL FALLS     CLEAR     44  42  93 CALM      29.97S
WASKISH        PTCLDY    54  52  94 CALM      29.96S
BIG FORK       FAIR      48  46  93 CALM      29.98S
LONGVILLE      PTCLDY    55  54  94 CALM      29.97S
GRAND RAPIDS   PTCLDY    48  46  93 SE3       29.99S
CRANE LAKE     PTCLDY    43  41  93 CALM      30.00S
COOK           PTCLDY    45  45 100 CALM      29.99S
WALKER         FAIR      60  56  88 S7        29.96S
$$
MNZ012-019>021-037-011100-
   Northeast Minnesota

CITY           SKY/WX    TMP DP  RH WIND       PRES   REMARKS
DULUTH         PTCLDY    49  45  86 CALM      29.99S
ELY            PTCLDY    43  41  93 CALM      30.00R
HIBBING        PTCLDY    42  41  96 CALM      30.00R FOG
DULUTH HARBOR  PTCLDY    55  52  88 NE3       30.00F
TWO HARBORS    PTCLDY    46  41  81 N1        29.98S
SILVER BAY     PTCLDY    39  37  93 CALM      29.99R
GRAND MARAIS     N/A     49  42  77 E3        29.99R
G MARAIS ARPRT CLEAR     39  36  87 CALM      30.01S
$$
MNZ029>031-032-039>041-046>048-054>057-064-011100-
   West Central Minnesota

CITY           SKY/WX    TMP DP  RH WIND       PRES   REMARKS
FERGUS FALLS   RAIN      64  64 100 S6        29.95R
WHEATON        RAIN      61  61 100 SE3       29.96R
MORRIS         CLOUDY    64  61  88 SE6       29.95R
ALEXANDRIA     LGT RAIN  62  59  90 S6        29.97R
ELBOW LAKE     LGT RAIN  63  61  93 S8        29.96R
WADENA           N/A     61  57  88 SE3       29.96R
GLENWOOD       LGT RAIN  61  59  94 SE5       29.96F
APPLETON       CLOUDY    64  57  77 SE6       29.94R
BENSON         LGT RAIN  64  55  72 SE6       29.95S
ORTONVILLE     LGT RAIN  63  59  88 E5        29.94R
MADISON        CLOUDY    63  59  88 SE6       29.92F
WILLMAR        FAIR      63  57  82 SE5       29.97R
$$
MNZ033>034-036-042>043-049>051-058-059-011100-
   Central Minnesota

CITY           SKY/WX    TMP DP  RH WIND       PRES   REMARKS
ST CLOUD       MOCLDY    59  54  83 E5        29.96S
SAUK CENTRE    PTSUNNY   61  57  87 SE3       29.97R
PAYNESVILLE    CLOUDY    60  55  81 E8        29.97R
AITKIN         PTCLDY    54  48  82 CALM      29.97S
PINE RIVER       N/A     57  54  88 SE3       30.00S
BRAINERD       MOCLDY    57  54  89 SE6       29.98S
STAPLES        CLOUDY    61  55  82 CALM      29.97R
LONG PRAIRIE   CLOUDY    61  55  82 SE3       29.97R
LITTLE FALLS   CLOUDY    59  54  82 SE3       29.97S
LITCHFIELD     MOCLDY    63  55  77 SE9       29.96R
BUFFALO        MOCLDY    60  51  73 E3        29.97S
MAPLE LAKE     MOCLDY    62  55  78 E5        29.97S
$$
MNZ037-044-045-052-053-011100-
   East Central Minnesota

CITY           SKY/WX    TMP DP  RH WIND       PRES   REMARKS
PRINCETON      CLOUDY    59  54  82 CALM      29.98S
MORA           MOCLDY    54  52  94 CALM      30.00S
CAMBRIDGE      CLOUDY    61  48  63 CALM      29.97S
RUSH CITY      CLOUDY    54  51  88 E3        30.00R
MOOSE LAKE     PTCLDY    46  46 100 CALM      29.99R
HINCKLEY       FAIR      48  48 100 CALM      30.00R
CLOQUET        PTCLDY    46  46 100 CALM      30.00R
MCGREGOR       PTCLDY    50  48  93 CALM      29.99S
$$
MNZ071>073-080-081-089-090-097-098-011100-
   Southwest Minnesota

CITY           SKY/WX    TMP DP  RH WIND       PRES   REMARKS
MONTEVIDEO     CLOUDY    63  59  88 S5        29.95S
GRANITE FALLS  CLOUDY    61  58  87 E5        29.96R
CANBY          CLOUDY    61  60  95 E7        29.92F FOG
MARSHALL       MOCLDY    61  55  82 SE6       29.93S
REDWOOD FALLS  MOCLDY    62  57  83 E3        29.95R
OLIVIA         MOCLDY    59  54  82 SE7       29.95R
PIPESTONE      CLOUDY    64  61  88 E6        29.91F
WINDOM         PTCLDY    59  55  88 E5        29.94R
WORTHINGTON    PTCLDY    61  57  88 E7        29.92R
JACKSON        PTCLDY    59  57  94 E8        29.92F
TRACY          MOCLDY    61  59  94 CALM      29.95R
SLAYTON        MOCLDY    61  60  95 CALM      29.94S
$$
MNZ065>067-074>077-082>085-091>093-011100-
   South Central Minnesota

CITY           SKY/WX    TMP DP  RH WIND       PRES   REMARKS
MANKATO        MOCLDY    61  52  72 E13       29.95S
NEW ULM        PTCLDY    61  55  82 E6        29.95R
ST JAMES       CLEAR     57  57 100 CALM      29.95S
FAIRMONT       CLEAR     57  52  82 SE5       29.93S
GLENCOE        PTCLDY    59  56  91 E5        29.95S
FARIBAULT      PTCLDY    57  52  82 E3        29.97R
OWATONNA       PTCLDY    55  52  88 E6        29.97R
WASECA         PTCLDY    55  52  88 E6        29.97R
ALBERT LEA     PTCLDY    57  54  88 E7        29.94F
$$
MNZ078>079-086>088-094>096-011100-
   Southeast Minnesota

CITY           SKY/WX    TMP DP  RH WIND       PRES   REMARKS
ROCHESTER      CLOUDY    53  50  89 NE7       29.97F
RED WING       CLOUDY    55  48  76 E6        29.97S
DODGE CENTER   MOCLDY    54  52  94 E3        29.97S
WINONA         MOCLDY    55  54  94 CALM      29.98R
AUSTIN         PTCLDY    55  52  88 E5        29.95F
PRESTON        MOCLDY    53  50  90 NE5       29.97F
$$
ABBREVIATIONS USED IN REMARKS
   TC - TEMPERATURES IN CELSIUS
  WCI - WIND CHILL INDEX
   HX - HEAT INDEX
  VSB - VISIBILITY
$$


USA.gov is the U.S. government's official web portal to all federal, state and local government web resources and services.